www.pogodaiklimat.ru

Погода и климат >> Архив погоды >> Китай >> Хэйлунцзян >> Цзиси


ПОГОДА в Цзиси

  • Прогноз погоды в Цзиси
  • Монитор погоды в Цзиси

АРХИВ ПОГОДЫ в Цзиси

Время (UTC), дата Ветер
(напр.,м/с)
 
Видим.   Явления Облачность Т
(С)
Тd
(С)
f
(%)
Тe
(С)
Тes
(С)
Комфортность P
(гПа)
Po
(гПа)
Тmin
(С)
Tmax
(С)
R
(мм)
R24
(мм)
S
(см)
03 10.09 З 5 28 км 4/4 600 м
[]
+19.6 +7.4 45 +20 +24 1015.1 987.7
06 10.09 З 7 30 км 5/5 600 м
[]
+20.5 +8.2 45 +21 +22 комфорт 1014.2 982.1 +11.0
09 10.09 СЗ 5 28 км 5/5 600 м
[]
+19.2 +8.8 51 +20 +20 1015.3 987.9
12 10.09 ЮЗ 3 29 км 8/8 600 м
[]
+14.5 +8.9 69 +14 +14 1018.3 986.0
15 10.09 З 3 30 км н/о +12.5 +7.4 71 +11 +11 1018.8 990.7
18 10.09 З 3 26 км н/о +11.8 +8.5 80 +10 +10 1019.2 986.9 +21.2
21 10.09 ЮЗ 3 30 км н/о +10.4 +7.8 84 +8 +8 1020.1 991.7
00 11.09 З 4 30 км 4/4 600 м
[]
+14.0 +8.4 69 +13 +15 1021.5 988.9 0.0
03 11.09 СЗ 9 26 км 8/8 600 м
[]
+17.7 +4.6 42 +17 +17 1020.1 992.4
06 11.09 СЗ 6
{17}
29 км 8/8 600 м
[]
+18.4 +4.2 39 +18 +19 1019.0 986.6 +10.2
09 11.09 З 6
{17}
28 км 3/3 600 м
[]
+17.8 +5.7 45 +17 +17 1019.3 991.7
12 11.09 З 1 28 км 3/3 600 м
[]
+13.8 +7.3 65 +14 +14 1020.5 987.9
15 11.09 З 2 26 км н/о +11.0 +7.9 81 +10 +10 1020.6 992.3
18 11.09 З 1 27 км в посл. час дождь ?/? +9.4 +7.7 89 +9 +9 1020.6 988.0 +19.4
21 11.09 З 3 23 км н/о +8.0 +7.1 94 +5 +5 1021.7 993.0
00 12.09 З 2 25 км 1/1 600 м
[]
+14.1 +9.7 75 +14 +18 1021.7 989.1
03 12.09 С 2 30 км 3/3 600 м
[]
+19.7 +6.8 43 +21 +29 комфорт 1020.8 993.3
06 12.09 З 3 30 км 6/6 600 м
[]
+21.8 +6.1 36 +22 +25 комфорт 1018.8 986.5 +8.0
09 12.09 В 3 27 км 8/8 600 м
[]
+19.6 +8.0 47 +21 +21 комфорт 1018.0 990.6
12 12.09 СВ 3 16 км 3/3 1000 м
[]
+14.8 +9.6 71 +14 +14 1018.5 986.0
15 12.09 В 2 24 км н/о +12.7 +9.9 83 +12 +12 1016.7 988.7
18 12.09 СЗ 1 20 км н/о +10.2 +9.0 92 +10 +10 1016.1 983.9 +22.3
21 12.09 ЮЗ 1 12 км н/о +8.7 +7.9 95 +8 +8 1016.7 988.3
00 13.09 В 1 18 км 6/6 600 м
[]
+14.3 +9.9 75 +15 +17 1014.6 982.3 0.0
03 13.09 В 1 20 км 9/9 1000 м
[]
+19.3 +11.3 60 +21 +23 комфорт 1012.5 985.2
06 13.09 Ю 4 28 км 6/6 600 м
[]
+22.7 +13.2 55 +26 +28 жарко 1010.3 978.3 +8.7
09 13.09 ЮВ 3 25 км 9/9 600 м
[]
+21.8 +14.2 62 +25 +25 комфорт 1008.1 981.1
12 13.09 Ю 6 30 км {дождь} 9/9 600 м
[]
+19.2 +13.8 71 +20 +20 1007.8 975.9 0.0
15 13.09 Ю 4 15 км слаб. дождь н/о +16.2 +14.4 89 +15 +15 1006.3 978.9
18 13.09 СЗ 5 16 км слаб. дождь ?/? +15.4 +13.8 90 +14 +14 1007.6 976.0 +23.4 1
21 13.09 З 2 30 км н/о +14.2 +12.1 87 +14 +14 1010.7 983.0
00 14.09 СЗ 4 29 км 9/9 600 м
[]
+15.3 +11.9 80 +14 +15 1012.7 980.7 1
03 14.09 СЗ 4 30 км 3/3 600 м
[]
+18.8 +6.6 45 +19 +25 1012.7 985.3
06 14.09 С 5 28 км ясно +20.8 +5.2 36 +22 +25 комфорт 1011.8 980.0 +14.1
09 14.09 С 3 30 км ясно +18.8 +6.0 43 +19 +19 1013.1 985.7
12 14.09 З 2 21 км ясно +13.8 +7.1 64 +13 +13 1015.3 983.0
15 14.09 Ю 3 22 км н/о +9.5 +7.8 89 +7 +7 1015.7 987.4
18 14.09 З 2 22 км н/о +8.1 +7.0 93 +6 +6 1015.4 983.0 +21.3
21 14.09 З 4 17 км н/о +7.3 +6.6 95 +4 +4 1015.5 987.0
00 15.09 З 2 20 км ясно +13.0 +8.9 76 +12 +17 1015.5 983.0 0.0
03 15.09 Ю 5 28 км 4/4
[]
+20.7 +6.6 40 +22 +25 комфорт 1013.2 986.0
06 15.09 Ю 4 30 км ясно +23.5 +1.8 24 +23 +27 комфорт 1010.2 978.2 +7.1
09 15.09 Ю 4 30 км 1/1
[]
+21.4 +3.1 30 +21 +22 комфорт 1009.3 982.3
12 15.09 В 1 16 км ясно +15.9 +6.1 52 +17 +17 1009.7 977.5
15 15.09 З 4 26 км н/о +14.3 +6.9 61 +13 +13 1009.7 982.0
18 15.09 З 3 20 км н/о +12.4 +7.9 74 +11 +11 1010.2 978.4 +23.7
21 15.09 ЮЗ 2 25 км н/о +11.4 +8.1 80 +10 +10 1011.9 983.9
00 16.09 З 2 28 км 6/6 600 м
[]
+15.2 +9.6 69 +15 +17 1013.8 981.6
03 16.09 З 5 30 км 3/3 600 м
[]
+17.3 -0.9 29 +17 +21 1014.1 986.6
06 16.09 З 6 30 км ясно +17.6 -4.4 22 +17 +20 1013.9 981.7 +11.2
09 16.09 З 6 26 км ясно +15.6 -1.9 30 +14 +14 1014.6 986.9
12 16.09 З 2 28 км ясно +10.1 +0.2 50 +9 +9 1017.0 984.4
15 16.09 ЮЗ 3 24 км н/о +7.1 +1.4 67 +4 +4 1018.0 989.4
18 16.09 З 2 26 км н/о +5.0 +2.0 81 +2 +2 1018.2 985.4 +18.1
21 16.09 З 4 24 км н/о +3.3 +1.5 88 -1 -1 1018.7 989.7
00 17.09 З 3 28 км ясно +9.3 +3.1 65 +7 +11 1018.6 985.6

 

Местоположение метеостанции Цзиси (Хэйлунцзян, Китай): широта 45.28 долгота 130.94 высота над уровнем моря 234 м.

В архиве по умолчанию представлена погода в Цзиси за последнюю неделю. Архивные данные за месяц целиком и за предыдущие месяцы, начиная с января 2011 года, Вы можете получить, выбрав интересующий диапазон дат из раскрывающегося списка и нажав кнопку "Ввод!".


*Определитесь, кто Вы:
робот инопланетянин человек

Внимание! Время в таблицах - всемирное. Для получения местного времени необходимо прибавить поправку, которая равна 8 ч.

Смотрите также архив погоды в соседних городах и на ближайших метеорологических станциях:

Погода в Турьем Роге (Приморский край, Россия) (82 км)
Погода в Суйфэньхэ (Хэйлунцзян, Китай) (101 км)
Погода в Пограничном (Приморский край, Россия) (102 км)
Погода в Астраханке (Приморский край, Россия) (104 км)
Погода в Хороле (Приморский край, Россия) (126 км)
Погода в Муданьцзяне (Хэйлунцзян, Китай) (132 км)
Погода в Полтавке (Приморский край, Россия) (142 км)
Погода в Баоцине (Хэйлунцзян, Китай) (150 км)
Погода в Спасск-Дальнем (Приморский край, Россия) (163 км)
Погода в Хулине (Хэйлунцзян, Китай) (167 км)

Пояснения к столбцам:

Ветер - указаны скорость ветра в м/с - средняя за 10 мин, порывы в срок и между сроками (в фигурных скобках) и направление, откуда дует ветер: С - северный, СВ - северо-восточный, В - восточный, ЮВ - юго-восточный, Ю - южный, ЮЗ - юго-западный, З - западный, СЗ - северо-западный.
Видимость - горизонтальная дальность видимости в метрах или километрах. При видимости от 1 до 10 км при отсутствии осадков обычно наблюдается дымка, при ухудшении видимости до 1 км и менее - туман. В сухую погоду видимость может ухудшаться дымом, пылью или мглою.
Явления - указаны атмосферные явления, наблюдавшиеся в срок или в последний час перед сроком; фигурными скобками обозначены явления, наблюдавшиеся между сроками (за 1-3 часа до срока); квадратными скобками обозначены град или гололедные отложения с указанием их диаметра в мм.
Облачность - указаны через наклонную черту общая и нижняя облачность в баллах и высота нижней границы облаков в метрах; квадратными скобками обозначены формы облаков: Ci - перистые, Cs - перисто-слоистые, Cc - перисто-кучевые, Ac - высококучевые, As - высокослоистые, Sc - слоисто-кучевые, Ns - слоисто-дождевые, Cu - кучевые, Cb - кучево-дождевые. Подробнее классификацию облаков см. в Атласе облаков (PDF).
T - Температура воздуха - температура, измеренная на высоте 2 м над землей.
Td - Температура точки росы - температура, при понижении до которой содержащийся в воздухе водяной пар достигнет насыщения.
f - Относительная влажность воздуха - влажноcть воздуха, измеренная на высоте 2 м над землей.
Te - Эффективная температура - температура, которую ощущает одетый по сезону человек в тени. Характеристика душности погоды. При расчете учитывается влияние влажности воздуха и скорости ветра на теплоощущения человека.
Tes - Эффективная температура на солнце - температура, которую ощущает человек, с поправкой на солнечный нагрев. Характеристика знойности погоды. Зависит от высоты солнца над горизонтом, облачности и скорости ветра. Ночью, в пасмурную погоду, а также при ветре 12 м/с и более поправка равна нулю.
P - Атмосферное давление - приведенное к уровню моря атмосферное давление.
Po - Атмосферное давление - измеренное на уровне метеостанции атмосферное давление.
Tmin - Минимальная температура - минимум температуры воздуха на высоте 2 м над землей.
Tmax - Максимальная температура - максимум температуры воздуха на высоте 2 м над землей.
R - Количество осадков - Количество выпавших осадков за период времени, мм. При наведении курсора мыши на число - период времени, за который выпало указанное количество осадков.
R24 - Количество осадков - Количество выпавших осадков за 24 часа, мм.
S - Снежный покров - Высота снежного покрова, см. При наведении курсора мыши на число - состояние снежного покрова и степень покрытия местности в баллах.